COSMOS 158

Satellite information

Favourite Embed

Satellite Type and Status

PAYLOADIN ORBIT

Key statistics

Satellite COSMOS 158 at a glance.

Uptime

21176

Days in orbit

Revolutions

≈ 14.4

Per day

Orbit

LEO

Low Earth Orbit

Inclination

74.0

Latest

Satellite identification and parameters

Extended collection of information and parameters for COSMOS 158.

Object identification

Identified? True

Debris? False

Object name: COSMOS 158

International designator: 1967-045A

Object number (NORAD): 2801

Object ID (CCSDS): 2801

Country: COMMONWEALTH OF INDEPENDENT STATES (CIS)

Current information (Y/N): Y

RCS size: LARGE

Orbital parameters

Period: 100.217 minutes

Inclination: 74.0388 deg

SMA: 7146.952 km

Apoapsis: 809.033 km

Periapsis: 728.601 km

RAAN: 94.234 deg

Eccentricy: 0.005627

Argument of periapsis: 41.1104 deg

Mean anomaly: 319.4268 deg

Mean motion: 14.36883271 rev/day

Mean motion (dot): 0.00000094 rev/day2

B* drag term: 0.000039898 1/REarth

Two-line elements (TLE)

Creation date: May 6, 2025, 3:54 a.m.

Reference frame: TEME

Reference center: EARTH

Epoch: May 5, 2025, 2:52 p.m. UTC

TLE line 0: 0 COSMOS 158

TLE line 1: 1 02801U 67045A 25125.61954771 .00000094 00000-0 39898-4 0 9992

TLE line 2: 2 02801 74.0388 94.2340 0056270 41.1104 319.4268 14.36883271 37888

Live tracking on map

Real-time ground track for satellite COSMOS 158.

In-orbit conjunctions

A list of the most updated potential collisions computed for object COSMOS 158.

Target Orbit TCA Probability of collision Miss distance Type
FENGYUN 1C DEB SSO 2025-05-06 14:02:24 0.0001687213 325.0 (m) DEBRIS
FENGYUN 1C DEB SSO 2025-03-02 15:37:14 0.0004117903 173.0 (m) DEBRIS
COSMOS 1275 DEB LEO 2025-02-15 10:54:51 0.0002621021 138.0 (m) DEBRIS
THOR ABLESTAR DEB LEO 2024-12-14 11:30:16 0.000560832 314.0 (m) DEBRIS
CZ-6A DEB SSO 2024-12-04 10:43:24 0.0001496243 628.0 (m) DEBRIS

Associated space launch

The Zaliv-GVM satellites were mass models of the Zaliv navigation satellites, which were launched as payload substitutes on some Kosmos-3M evaluation launches.

COSMOS 158 was lifted into orbit during the mission ‘Kosmos-3M | Zaliv-GVM 1’, on board a Kosmos-3M space rocket.

The launch took place on May 15, 1967, 11 a.m. from 132/2.

For more information about the launch, click the button.

Launch to space Kosmos-3M | Zaliv-GVM 1
Kosmos-3M | Zaliv-GVM 1

Agency: N/A

Status: Launch Successful

Launch date: May 15, 1967, 11 a.m. UTC

Rocket: Kosmos-3M

Launch pad: 132/2

Location: Plesetsk Cosmodrome, Russian Federation

...

Latest news about this satellite

There are no fresh news available about this satellite. Check back as we update our databases every day.


Newsletter sign-up

Weekly statistics, charts and insights to help you stay on top of the space industry.